Regional Weather Roundup
Issued by NWS

Home | Current Version | Previous Version | Graphics & Text | Print | Product List | Glossary On
Versions: 1 2 3 4 5 6 7 8 9 10 11 12 13 14 15 16 17 18 19 20 21 22 23 24 25 26 27
000
ASUS45 KCYS 191810
RWRWY

WYOMING REGIONAL WEATHER ROUNDUP
NATIONAL WEATHER SERVICE CHEYENNE WY
1200 PM MDT SAT APR 19 2014

NOTE:  "FAIR" INDICATES FEW OR NO CLOUDS BELOW 12,000 FEET
WITH NO SIGNIFICANT WEATHER AND/OR OBSTRUCTIONS TO VISIBILITY.

WYZ001-191900-
YELLOWSTONE NATIONAL PARK

CITY           SKY/WX    TMP DP  RH WIND       PRES   REMARKS
LK YELLOWSTONE   N/A     44   9  23 VRB6      30.09R
6HR MIN TEMP:  16; 6HR MAX TEMP:  44;

W YELLOWSTONE  NOT AVBL

$$
WYZ002>013-054>058-071-098>099-191900-
NORTHERN WYOMING

CITY           SKY/WX    TMP DP  RH WIND       PRES   REMARKS
JACKSON        SUNNY     46  27  46 CALM      30.05F
CODY           MOSUNNY   55  27  33 SE13      29.97F
GREYBULL       SUNNY     55  27  34 VRB5      29.98F
6HR MIN TEMP:  32; 6HR MAX TEMP:  55;

WORLAND        MOSUNNY   54  28  36 CALM      29.99F
6HR MIN TEMP:  29; 6HR MAX TEMP:  54;

SHERIDAN         N/A     54  28  37 SW20G25     N/A
6HR MIN TEMP:  33; 6HR MAX TEMP:  55;

BUFFALO        SUNNY     53  24  32 S15G21    30.02F
6HR MIN TEMP:  33; 6HR MAX TEMP:  53;

GILLETTE       SUNNY     54  20  26 CALM      30.04F
6HR MIN TEMP:  29; 6HR MAX TEMP:  55;

HULETT         FAIR      54  19  26 W8        30.03
NEWCASTLE      FAIR      55  16  21 CALM      30.04

$$
WYZ014>020-022>026-101>103-191900-
CENTRAL WYOMING

CITY           SKY/WX    TMP DP  RH WIND       PRES   REMARKS
BIG PINEY      MOSUNNY   52  12  20 VRB3      30.10S
6HR MIN TEMP:  17; 6HR MAX TEMP:  53;

PINEDALE       PTCLDY    50  14  23 W3        30.11R
DUBOIS         FAIR      50  10  20 W24G31    30.02F
LANDER         MOSUNNY   56  20  24 VRB6      30.00S
6HR MIN TEMP:  31; 6HR MAX TEMP:  57;

RIVERTON       MOSUNNY   56  11  16 MISG      30.02S
6HR MIN TEMP:  30; 6HR MAX TEMP:  56;

CASPER         MOSUNNY   56  29  35 S6        30.02F
6HR MIN TEMP:  25; 6HR MAX TEMP:  56;

DOUGLAS        PTSUNNY   54  30  40 S12       30.05F
6HR MIN TEMP:  32; 6HR MAX TEMP:  54;


$$
WYZ021-027>030-104>119-191900-
SOUTHERN WYOMING

CITY           SKY/WX    TMP DP  RH WIND       PRES   REMARKS
EVANSTON       MOSUNNY   56  32  40 W12       30.11R
6HR MIN TEMP:  35; 6HR MAX TEMP:  56;

KEMMERER       CLOUDY    50  23  34 W10       30.12S
FORT BRIDGER   MOCLDY    56  26  32 W7        30.14S
ROCK SPRINGS   MOSUNNY   58  25  28 S6        30.09S
6HR MIN TEMP:  38; 6HR MAX TEMP:  59;

DIXON          CLOUDY    58  35  40 S13G20    30.13S
RAWLINS        PTSUNNY   59  27  29 W8G16     30.08F
6HR MIN TEMP:  36; 6HR MAX TEMP:  59;

SARATOGA       CLOUDY    55  30  38 W12       30.11S
LARAMIE        CLOUDY    53  30  41 SW17      30.09F
6HR MIN TEMP:  41; 6HR MAX TEMP:  53;

CHEYENNE       CLOUDY    56  37  49 SE5       30.08R
6HR MIN TEMP:  42; 6HR MAX TEMP:  57;

TORRINGTON     CLOUDY    54  35  48 E8        30.06S
6HR MIN TEMP:  43; 6HR MAX TEMP:  54;

PINE BLUFFS    CLOUDY    52  32  46 E9        30.08F

$$



USA.gov is the U.S. government's official web portal to all federal, state and local government web resources and services.